• In Russia
  • List of Countries
  • For 7 days
  • Water Temperature
  • Satellite Maps
  • Weather Map
  • Weather Widgets
  • user-avatar
    Login

    Hourly Weather Przyrowa

    Today, 14 December, Friday

    Time Temperature Precipitation Wind Pressure Humidity
    00:00 -2°C° 0 mm 2 mps 759 mmHg 80%
    01:00 -2°C° 0 mm 2 mps 760 mmHg 80%
    02:00 -2°C° 0 mm 2 mps 760 mmHg 81%
    03:00 -2°C° 0 mm 2 mps 759 mmHg 81%
    04:00 -2°C° 0 mm 2 mps 759 mmHg 81%
    05:00 -2°C° 0 mm 2 mps 760 mmHg 82%
    06:00 -2°C° 0 mm 2 mps 760 mmHg 82%
    07:00 -2°C° 0 mm 2 mps 760 mmHg 83%
    08:00 -2°C° 0 mm 2 mps 760 mmHg 82%
    09:00 -1°C° 0 mm 3 mps 760 mmHg 81%
    10:00 -1°C° 0 mm 3 mps 760 mmHg 80%
    11:00 -1°C° 0 mm 3 mps 761 mmHg 80%
    12:00 -1°C° 0 mm 3 mps 761 mmHg 79%
    13:00 0°C° 0 mm 3 mps 761 mmHg 78%
    14:00 -1°C° 0 mm 3 mps 761 mmHg 80%
    15:00 -1°C° 0 mm 2 mps 761 mmHg 82%
    16:00 -1°C° 0 mm 2 mps 761 mmHg 84%
    17:00 -1°C° 0 mm 2 mps 761 mmHg 85%
    18:00 -1°C° 0 mm 3 mps 762 mmHg 86%
    19:00 -1°C° 0 mm 3 mps 762 mmHg 87%
    20:00 -2°C° 0 mm 3 mps 762 mmHg 88%
    21:00 -2°C° 0 mm 3 mps 762 mmHg 89%
    22:00 -2°C° 0 mm 3 mps 762 mmHg 90%
    23:00 -2°C° 0 mm 3 mps 762 mmHg 91%

    Tomorrow, 15 December, Saturday

    Time Temperature Precipitation Wind Pressure Humidity
    00:00 -2°C° 0 mm 2 mps 763 mmHg 91%
    01:00 -2°C° 0 mm 2 mps 763 mmHg 92%
    02:00 -2°C° 0 mm 3 mps 763 mmHg 91%
    03:00 -2°C° 0 mm 3 mps 763 mmHg 91%
    04:00 -1°C° 0 mm 3 mps 763 mmHg 90%
    05:00 -2°C° 0 mm 3 mps 763 mmHg 91%
    06:00 -2°C° 0 mm 3 mps 763 mmHg 91%
    07:00 -2°C° 0 mm 3 mps 763 mmHg 91%
    08:00 -1°C° 0 mm 3 mps 764 mmHg 89%
    09:00 -1°C° 0 mm 3 mps 764 mmHg 87%
    10:00 -1°C° 0 mm 3 mps 764 mmHg 85%
    11:00 -1°C° 0 mm 3 mps 764 mmHg 83%
    12:00 -1°C° 0 mm 3 mps 763 mmHg 81%
    13:00 0°C° 0 mm 3 mps 763 mmHg 78%
    14:00 -1°C° 0 mm 3 mps 763 mmHg 80%
    15:00 -1°C° 0 mm 3 mps 763 mmHg 81%
    16:00 -2°C° 0 mm 3 mps 763 mmHg 82%
    17:00 -2°C° 0 mm 3 mps 763 mmHg 82%
    18:00 -3°C° 0 mm 4 mps 763 mmHg 81%
    19:00 -3°C° 0 mm 4 mps 763 mmHg 81%
    20:00 -3°C° 0 mm 4 mps 763 mmHg 80%
    21:00 -3°C° 0 mm 4 mps 762 mmHg 80%
    22:00 -3°C° 0 mm 4 mps 762 mmHg 79%
    23:00 -3°C° 0 mm 4 mps 762 mmHg 78%

    Day after tomorrow, 16 December, Sunday

    Time Temperature Precipitation Wind Pressure Humidity
    00:00 -4°C° 0 mm 5 mps 762 mmHg 77%
    01:00 -4°C° 0 mm 5 mps 761 mmHg 76%
    02:00 -4°C° 0.1 mm 5 mps 761 mmHg 78%
    03:00 -4°C° 0.1 mm 5 mps 760 mmHg 80%
    04:00 -4°C° 0.1 mm 5 mps 760 mmHg 82%
    05:00 -5°C° 0.3 mm 5 mps 759 mmHg 83%
    06:00 -5°C° 0.3 mm 6 mps 759 mmHg 84%
    07:00 -5°C° 0.3 mm 6 mps 759 mmHg 85%
    08:00 -4°C° 0.2 mm 6 mps 759 mmHg 85%
    09:00 -4°C° 0.2 mm 6 mps 759 mmHg 84%
    10:00 -4°C° 0.2 mm 6 mps 758 mmHg 83%
    11:00 -4°C° 0.3 mm 5 mps 758 mmHg 85%
    12:00 -4°C° 0.3 mm 5 mps 757 mmHg 86%
    13:00 -4°C° 0.3 mm 5 mps 757 mmHg 87%
    14:00 -4°C° 0.2 mm 5 mps 757 mmHg 88%
    15:00 -3°C° 0.2 mm 4 mps 757 mmHg 89%
    16:00 -3°C° 0.2 mm 4 mps 757 mmHg 90%
    17:00 -3°C° 0 mm 4 mps 757 mmHg 90%
    18:00 -2°C° 0 mm 4 mps 757 mmHg 91%
    19:00 -2°C° 0 mm 4 mps 757 mmHg 91%
    20:00 -2°C° 0 mm 4 mps 757 mmHg 92%
    21:00 -2°C° 0 mm 4 mps 757 mmHg 93%
    22:00 -2°C° 0 mm 3 mps 757 mmHg 93%
    23:00 -2°C° 0 mm 3 mps 756 mmHg 94%

    17 December, Monday

    Time Temperature Precipitation Wind Pressure Humidity
    00:00 -2°C° 0 mm 3 mps 756 mmHg 94%
    01:00 -2°C° 0 mm 3 mps 756 mmHg 94%
    02:00 -2°C° 0 mm 3 mps 756 mmHg 94%
    03:00 -2°C° 0 mm 3 mps 756 mmHg 94%
    04:00 -2°C° 0 mm 3 mps 756 mmHg 94%
    05:00 -2°C° 0 mm 3 mps 756 mmHg 93%
    06:00 -2°C° 0 mm 3 mps 756 mmHg 93%
    07:00 -1°C° 0 mm 3 mps 756 mmHg 92%
    08:00 -1°C° 0 mm 3 mps 757 mmHg 91%
    09:00 -1°C° 0 mm 3 mps 757 mmHg 90%
    10:00 -1°C° 0 mm 3 mps 757 mmHg 88%
    11:00 -1°C° 0 mm 2 mps 757 mmHg 87%
    12:00 -1°C° 0 mm 2 mps 757 mmHg 86%
    13:00 +1°C° 0 mm 2 mps 757 mmHg 85%
    14:00 -1°C° 0 mm 2 mps 758 mmHg 86%
    15:00 -1°C° 0 mm 2 mps 758 mmHg 88%
    16:00 -2°C° 0 mm 2 mps 758 mmHg 89%
    17:00 -2°C° 0 mm 2 mps 759 mmHg 90%
    18:00 -2°C° 0 mm 2 mps 759 mmHg 91%
    19:00 -2°C° 0 mm 2 mps 760 mmHg 92%
    20:00 -2°C° 0 mm 2 mps 760 mmHg 92%
    21:00 -2°C° 0 mm 2 mps 760 mmHg 93%
    22:00 -2°C° 0 mm 2 mps 761 mmHg 93%
    23:00 -2°C° 0 mm 2 mps 761 mmHg 93%

    18 December, Tuesday

    Time Temperature Precipitation Wind Pressure Humidity
    00:00 -2°C° 0 mm 2 mps 761 mmHg 93%
    01:00 -2°C° 0 mm 2 mps 761 mmHg 93%
    02:00 0°C° 0 mm 1 mps 761 mmHg 94%
    03:00 0°C° 0 mm 1 mps 761 mmHg 94%
    04:00 -1°C° 0 mm 1 mps 761 mmHg 94%
    05:00 -1°C° 0 mm 1 mps 762 mmHg 94%
    06:00 -1°C° 0 mm 1 mps 762 mmHg 94%
    07:00 -1°C° 0 mm 1 mps 762 mmHg 95%
    08:00 -2°C° 0 mm 2 mps 762 mmHg 94%
    09:00 -2°C° 0 mm 2 mps 763 mmHg 93%
    10:00 -1°C° 0 mm 2 mps 763 mmHg 92%
    11:00 -1°C° 0 mm 2 mps 763 mmHg 92%
    12:00 +1°C° 0 mm 2 mps 763 mmHg 91%
    13:00 +1°C° 0 mm 2 mps 762 mmHg 91%
    14:00 -1°C° 0 mm 2 mps 762 mmHg 92%
    15:00 -1°C° 0 mm 2 mps 762 mmHg 93%
    16:00 -2°C° 0 mm 2 mps 762 mmHg 94%
    17:00 -2°C° 0 mm 2 mps 762 mmHg 94%
    18:00 -2°C° 0 mm 2 mps 762 mmHg 94%
    19:00 -2°C° 0 mm 2 mps 762 mmHg 94%
    20:00 -4°C° 0 mm 3 mps 762 mmHg 94%
    21:00 -4°C° 0 mm 3 mps 762 mmHg 94%
    22:00 -4°C° 0 mm 3 mps 761 mmHg 94%
    23:00 -4°C° 0 mm 3 mps 761 mmHg 93%

    19 December, Wednesday

    Time Temperature Precipitation Wind Pressure Humidity
    00:00 -4°C° 0 mm 3 mps 761 mmHg 93%
    01:00 -4°C° 0 mm 4 mps 760 mmHg 93%
    02:00 -4°C° 0 mm 4 mps 760 mmHg 92%
    03:00 -4°C° 0 mm 4 mps 759 mmHg 91%
    04:00 -5°C° 0 mm 5 mps 759 mmHg 90%
    05:00 -5°C° 0 mm 5 mps 759 mmHg 90%
    06:00 -5°C° 0 mm 5 mps 759 mmHg 89%
    07:00 -5°C° 0 mm 6 mps 758 mmHg 88%
    08:00 -4°C° 0 mm 6 mps 758 mmHg 86%
    09:00 -4°C° 0 mm 6 mps 758 mmHg 85%
    10:00 -4°C° 0 mm 6 mps 758 mmHg 83%
    11:00 -3°C° 0 mm 6 mps 757 mmHg 81%
    12:00 -3°C° 0 mm 6 mps 756 mmHg 80%
    13:00 -2°C° 0 mm 6 mps 756 mmHg 79%
    14:00 -2°C° 0 mm 5 mps 755 mmHg 80%
    15:00 -2°C° 0 mm 5 mps 755 mmHg 81%
    16:00 -2°C° 0 mm 5 mps 755 mmHg 83%
    17:00 -2°C° 0 mm 5 mps 754 mmHg 84%
    18:00 -2°C° 0 mm 5 mps 754 mmHg 84%
    19:00 -2°C° 0 mm 4 mps 754 mmHg 85%
    20:00 -2°C° 0 mm 4 mps 754 mmHg 86%
    21:00 -2°C° 0 mm 4 mps 754 mmHg 86%
    22:00 -3°C° 0 mm 4 mps 754 mmHg 87%
    23:00 -3°C° 0 mm 4 mps 754 mmHg 87%
    Show more